sat.trackr.live / text

‹ back to catalog

LIDE

NORAD 64869 · 2025-154A

PAYLOAD ACTIVE UNKNOWN

§ Identity

Operator
Country
IT
Launch date
2025-07-23
Launch site
AFWTR
Launch vehicle
Mass (kg)
RCS (m²)

External: N2YO · Heavens-Above · Gunter

§ Orbital elements

Epoch: 2026-05-25T03:46:15.028896Z

Period
96.37 min
Inclination
97.6729°
Eccentricity
0.0004117
Mean motion
14.94180967 rev/d
Perigee alt
582.0 km
Apogee alt
587.8 km
Semi-major
6,963.1 km
B*
2.0000e-4
RAAN
209.5091°
Arg perigee
320.2967°
Mean anomaly
39.7952°
Rev number
4,556

§ Raw data

LIDE1 64869U 25154A   26145.15711839  .00002086  00000+0  20000-3 0  99932 64869  97.6729 209.5091 0004117 320.2967  39.7952 14.94180967 45567

JSON: /api/v1/satellites/64869 · /tle

For live sub-satellite position, see the globe view (requires WebGL).

§ Visibility from observer

Set your observer location to see the next 7 days of passes ≥ 10°. The values pass through the URL so the page stays shareable.

No JS? Fill the form by hand. The geolocation button needs JavaScript.

§ Radio — SatNOGS DB

ModeDescriptionDownlinkUplink
FM S-band telemetry 2.235 GHz

1 transmitter · refreshed weekly from db.satnogs.org